(32231) = 2000 OT27

Discovered at Socorro on 2000-07-23 by LINEAR.

Orbit

Orbit type: Main Belt

Note: WebGL enabled browser required.

epoch2024-03-31.0
epoch JD2460400.5
perihelion date2022-09-20.07963
perihelion JD2459842.57963
argument of perihelion (°)336.89457
ascending node (°)329.51820
inclination (°)16.34035
eccentricity0.1222451
perihelion distance (AU)2.7687642
Tisserand w.r.t. Jupiter3.1
ΔV w.r.t. Earth (km/sec)11.5
semimajor axis (AU)3.1543705
mean anomaly (°)98.15378
mean daily motion (°/day)0.17592790
aphelion distance (AU)3.540
period (years)5.6
P-vector [x]0.60163895
P-vector [y]-0.68190436
P-vector [z]-0.41597718
Q-vector [x]0.78591537
Q-vector [y]0.41230561
Q-vector [z]0.46080485
absolute magnitude13.62
phase slope0.15
uncertainty0
referenceMPEC 2024-D129
observations used2178
oppositions22
arc length (days)11715
first opposition used1992
last opposition used2024
residual rms (arc-secs)0.63
perturbers coarse indicatorM-v
perturbers precise indicator003Ek
first observation date used1992-01-30.0
last observation date used2024-02-26.0
computer nameMPCLINUX
JD of orbit computation2456819.499577
perihelion JD uncertainty (days)1.4213E-04
argument of perihelion uncertainty (°)2.8680E-05
ascending node uncertainty (°)1.7565E-05
inclination uncertainty (°)6.6044E-06
eccentricity uncertainty 5.9671E-08
perihelion distance uncertainty (AU)1.8903E-07
Minimum Orbit Intersection Distances (in AU)
for orbit epoch: 2460400.5, reference: E2024-DC9
Mercury2.32999
Venus2.04216
Earth1.76172
Mars1.38061
Jupiter1.80008
Saturn5.62126
Uranus14.9618
Neptune26.6787

Observations

2192 total observations over interval: 1992 01 30.44283 – 2024 02 26.262949
These data are available for download (format description).

Date (UT) J2000 RA J2000 Dec Magn Location Ref
1992 01 30.44283 09 18 28.64 +22 45 36.3 19.5 V 691 – Steward Observatory, Kitt Peak-Spacewatch MPS 33308
1992 01 30.46885 09 18 27.16 +22 45 37.7   691 – Steward Observatory, Kitt Peak-Spacewatch MPS 33308
1992 01 30.49498 09 18 25.75 +22 45 39.4   691 – Steward Observatory, Kitt Peak-Spacewatch MPS 33308
1998 03 20.11857 10 16 27.80 +06 09 35.4 19.2   704 – Lincoln Laboratory ETS, New Mexico MPS 17855
1998 03 20.13876 10 16 26.90 +06 09 35.7 19.2   704 – Lincoln Laboratory ETS, New Mexico MPS 17855
1998 03 20.15914 10 16 26.00 +06 09 36.0 19.3   704 – Lincoln Laboratory ETS, New Mexico MPS 17855
1998 03 20.19970 10 16 24.34 +06 09 40.9 19.1   704 – Lincoln Laboratory ETS, New Mexico MPS 17855
1998 03 25.35334 10 12 59.62 +06 14 23.2 19.2 V 566 – Haleakala-NEAT/GEODSS MPS 17855
1998 03 25.36331 10 12 59.21 +06 14 23.7 19.7 V 566 – Haleakala-NEAT/GEODSS MPS 17855
1998 03 25.37338 10 12 58.83 +06 14 24.5 20.1 V 566 – Haleakala-NEAT/GEODSS MPS 17855
2000 07 07.37879 23 01 08.36 -08 20 02.0 18.5   704 – Lincoln Laboratory ETS, New Mexico MPS 17855
2000 07 07.40340 23 01 08.27 -08 19 54.4 18.9   704 – Lincoln Laboratory ETS, New Mexico MPS 17855
2000 07 07.42784 23 01 08.12 -08 19 48.2 19.3   704 – Lincoln Laboratory ETS, New Mexico MPS 17855
2000 07 23.41236 22 57 17.81 -07 22 19.0 17.8   704 – Lincoln Laboratory ETS, New Mexico MPS 17855
2000 07 23.42562 22 57 17.37 -07 22 16.7 18.0   704 – Lincoln Laboratory ETS, New Mexico MPS 17855
2000 07 23.43905 22 57 17.00 -07 22 14.5 17.5   704 – Lincoln Laboratory ETS, New Mexico MPS 17855
2000 07 23.45251 22 57 16.67 -07 22 12.1 17.7   704 – Lincoln Laboratory ETS, New Mexico MPS 17855
2000 08 02.30539 22 51 55.99 -06 58 37.4 18.4   704 – Lincoln Laboratory ETS, New Mexico MPS 17855
2000 08 02.31968 22 51 55.46 -06 58 34.8 18.8   704 – Lincoln Laboratory ETS, New Mexico MPS 17855
2000 08 02.33417 22 51 54.84 -06 58 34.1 18.7   704 – Lincoln Laboratory ETS, New Mexico MPS 17855
2000 08 02.34845 22 51 54.21 -06 58 31.7 18.7   704 – Lincoln Laboratory ETS, New Mexico MPS 17855
2000 08 02.36278 22 51 53.66 -06 58 30.8 18.7   704 – Lincoln Laboratory ETS, New Mexico MPS 17855
2000 08 24.27078 22 33 58.52 -06 32 17.0 16.9   704 – Lincoln Laboratory ETS, New Mexico MPS 17855
2000 08 24.28347 22 33 57.78 -06 32 16.7 16.9   704 – Lincoln Laboratory ETS, New Mexico MPS 17855
2000 08 24.29622 22 33 57.06 -06 32 16.2 17.3   704 – Lincoln Laboratory ETS, New Mexico MPS 17855
2000 08 24.30896 22 33 56.36 -06 32 15.4 17.0   704 – Lincoln Laboratory ETS, New Mexico MPS 17855
2000 08 24.32169 22 33 55.62 -06 32 14.7 16.6   704 – Lincoln Laboratory ETS, New Mexico MPS 17855
2000 08 31.31882 22 27 24.53 -06 28 39.1 17.5   704 – Lincoln Laboratory ETS, New Mexico MPS 17855
2000 08 31.33319 22 27 23.66 -06 28 38.8 17.7   704 – Lincoln Laboratory ETS, New Mexico MPS 17855
2000 08 31.34766 22 27 22.84 -06 28 38.3 17.4   704 – Lincoln Laboratory ETS, New Mexico MPS 17855
2000 08 31.36103 22 27 22.07 -06 28 38.2 17.7   704 – Lincoln Laboratory ETS, New Mexico MPS 17855
2000 08 31.37538 22 27 21.26 -06 28 37.7 17.8   704 – Lincoln Laboratory ETS, New Mexico MPS 17855
2000 09 05.19688 22 22 56.71 -06 26 33.8 17.1   704 – Lincoln Laboratory ETS, New Mexico MPS 17855
2000 09 05.21035 22 22 55.98 -06 26 33.0 17.3   704 – Lincoln Laboratory ETS, New Mexico MPS 17855
2000 09 05.22369 22 22 55.20 -06 26 32.6 17.5   704 – Lincoln Laboratory ETS, New Mexico MPS 17855
2000 09 05.23705 22 22 54.44 -06 26 32.7 17.5   704 – Lincoln Laboratory ETS, New Mexico MPS 17855
2000 09 05.25043 22 22 53.73 -06 26 32.0 17.1   704 – Lincoln Laboratory ETS, New Mexico MPS 17855
2000 09 21.19223 22 10 09.06 -06 17 42.8 17.8   704 – Lincoln Laboratory ETS, New Mexico MPS 19170
2000 09 21.19662 22 10 08.88 -06 17 42.6 17.0 R 699 – Lowell Observatory-LONEOS MPS 30033
2000 09 21.20771 22 10 08.41 -06 17 41.9 18.0   704 – Lincoln Laboratory ETS, New Mexico MPS 19170
2000 09 21.21639 22 10 08.03 -06 17 41.8   699 – Lowell Observatory-LONEOS MPS 30033
2000 09 21.22376 22 10 07.73 -06 17 41.0 18.0   704 – Lincoln Laboratory ETS, New Mexico MPS 19170
2000 09 21.23619 22 10 07.26 -06 17 40.5   699 – Lowell Observatory-LONEOS MPS 30033
2000 09 21.23834 22 10 07.11 -06 17 40.8 18.1   704 – Lincoln Laboratory ETS, New Mexico MPS 19170
2000 09 21.25329 22 10 06.52 -06 17 39.5 18.1   704 – Lincoln Laboratory ETS, New Mexico MPS 19170
2000 09 21.25600 22 10 06.40 -06 17 39.8   699 – Lowell Observatory-LONEOS MPS 30033
2000 09 24.18724 22 08 14.12 -06 15 08.7 17.8   704 – Lincoln Laboratory ETS, New Mexico MPS 19170
2000 09 24.20221 22 08 13.51 -06 15 08.0 17.8   704 – Lincoln Laboratory ETS, New Mexico MPS 19170
2000 09 24.21720 22 08 12.98 -06 15 07.7 17.9   704 – Lincoln Laboratory ETS, New Mexico MPS 19170
2000 09 24.23214 22 08 12.40 -06 15 06.8 18.2   704 – Lincoln Laboratory ETS, New Mexico MPS 19170
2000 09 24.24738 22 08 11.83 -06 15 05.7 17.8   704 – Lincoln Laboratory ETS, New Mexico MPS 19170
2000 10 03.17790 22 03 39.93 -06 04 49.1 18.2   704 – Lincoln Laboratory ETS, New Mexico MPS 19170
2000 10 03.17803 22 03 39.92 -06 04 48.7 18.0   704 – Lincoln Laboratory ETS, New Mexico MPS 19170
2000 10 03.19310 22 03 39.52 -06 04 47.9 18.6   704 – Lincoln Laboratory ETS, New Mexico MPS 19170
2000 10 03.19323 22 03 39.54 -06 04 47.1 18.7   704 – Lincoln Laboratory ETS, New Mexico MPS 19170
2000 10 03.20829 22 03 39.13 -06 04 45.9 19.6   704 – Lincoln Laboratory ETS, New Mexico MPS 19170
2000 10 03.20842 22 03 39.14 -06 04 45.2 19.3   704 – Lincoln Laboratory ETS, New Mexico MPS 19170
2000 10 03.22359 22 03 38.76 -06 04 45.1 18.2   704 – Lincoln Laboratory ETS, New Mexico MPS 19170
2000 10 03.22372 22 03 38.79 -06 04 44.1 18.5   704 – Lincoln Laboratory ETS, New Mexico MPS 19170
2000 10 03.23889 22 03 38.32 -06 04 44.0 18.5   704 – Lincoln Laboratory ETS, New Mexico MPS 19170
2000 10 03.23902 22 03 38.36 -06 04 43.1 18.7   704 – Lincoln Laboratory ETS, New Mexico MPS 19170
2000 10 25.14540 22 00 40.39 -05 17 22.9 18.8   704 – Lincoln Laboratory ETS, New Mexico MPS 20941
2000 10 25.15896 22 00 40.41 -05 17 19.7 19.2   704 – Lincoln Laboratory ETS, New Mexico MPS 20941
2000 10 25.20248 22 00 40.86 -05 17 11.3 19.0   704 – Lincoln Laboratory ETS, New Mexico MPS 20941
2000 11 20.07018 22 10 59.63 -03 34 29.2 18.4   704 – Lincoln Laboratory ETS, New Mexico MPS 22354
2000 11 20.08483 22 11 00.12 -03 34 25.3 19.1   704 – Lincoln Laboratory ETS, New Mexico MPS 22354
2000 11 20.09946 22 11 00.70 -03 34 20.5 19.4   704 – Lincoln Laboratory ETS, New Mexico MPS 22354
2000 11 20.11410 22 11 01.25 -03 34 15.4 19.2   704 – Lincoln Laboratory ETS, New Mexico MPS 22354
2000 11 20.12872 22 11 01.80 -03 34 12.6 19.2   704 – Lincoln Laboratory ETS, New Mexico MPS 22354
2001 09 26.42503 04 06 49.14 +40 39 41.2 20.5   704 – Lincoln Laboratory ETS, New Mexico MPS 35760
2001 09 26.44096 04 06 49.14 +40 39 46.7 19.9   704 – Lincoln Laboratory ETS, New Mexico MPS 35760
2001 09 26.45544 04 06 49.14 +40 39 52.3 20.2   704 – Lincoln Laboratory ETS, New Mexico MPS 35760
2001 09 26.46991 04 06 49.14 +40 39 56.6 20.6   704 – Lincoln Laboratory ETS, New Mexico MPS 35760
2001 10 25.35213 03 55 14.51 +42 47 48.0 19.2   704 – Lincoln Laboratory ETS, New Mexico MPS 39137
2001 10 25.38615 03 55 12.81 +42 47 50.2 19.2   704 – Lincoln Laboratory ETS, New Mexico MPS 39137
2001 10 25.40275 03 55 12.00 +42 47 52.8 19.7   704 – Lincoln Laboratory ETS, New Mexico MPS 39137
2001 11 26.28739 03 23 52.09 +42 19 45.5 18.3   704 – Lincoln Laboratory ETS, New Mexico MPS 41789
2001 11 26.30221 03 23 51.32 +42 19 40.7 18.8   704 – Lincoln Laboratory ETS, New Mexico MPS 41789
2001 11 26.31697 03 23 50.38 +42 19 36.6 19.3   704 – Lincoln Laboratory ETS, New Mexico MPS 41789
2001 11 26.33172 03 23 49.35 +42 19 34.5 18.7   704 – Lincoln Laboratory ETS, New Mexico MPS 41789
2001 12 08.21900 03 12 58.66 +41 19 51.3 19.0   704 – Lincoln Laboratory ETS, New Mexico MPS 46354
2001 12 08.23416 03 12 58.00 +41 19 42.6 19.7   704 – Lincoln Laboratory ETS, New Mexico MPS 46354
2001 12 08.24932 03 12 57.25 +41 19 37.4 19.3   704 – Lincoln Laboratory ETS, New Mexico MPS 46354
